Weather History for Falls City, NE

Change the Weather History Date:

Tuesday, April 23, 2013

  Actual Average Record
Temperature  
Mean Temperature 2 °C -  
Max Temperature 5 °C 19 °C 35 °C (1989)
Min Temperature -1 °C 6 °C -1 °C (1992)
Degree Days  
Heating Degree Days 30    
Moisture  
Dew Point -2 °C    
Average Humidity 82    
Maximum Humidity 93    
Minimum Humidity 62    
Precipitation  
Precipitation 2.03 mm - - ()
Sea Level Pressure  
Sea Level Pressure 1021 hPa    
Wind  
Wind Speed 24 km/h (North)    
Max Wind Speed 34 km/h    
Max Gust Speed 50 km/h    
Visibility 11 kilometers    
Events Fog , Rain , Snow    
Averages and records for this station are not official NWS values.
T = Trace of Precipitation, MM = Missing Value Source: NWS Daily Summary

Daily Weather History Graph

Daily Weather History Graph

Search for Another Location

Airport:

Trip Planner

Search our weather history database for the weather conditions in past years. The results will help you decide how hot, cold, wet, or windy it might be!

Date:

Astronomy

Apr. 23, 2013 Rise Set
Actual Time 6:32 AM CDT 8:09 PM CDT
Civil Twilight 6:03 AM CDT 8:38 PM CDT
Nautical Twilight 5:29 AM CDT 9:12 PM CDT
Astronomical Twilight 4:52 AM CDT 9:49 PM CDT
Moon 6:05 PM CDT (4/23) 5:01 AM CDT (4/23)
Length of Visible Light 14h 34m
Length of Day
13h 36m
Waxing Gibbous, 94% of the Moon is Illuminated
Apr 23
Waxing Gibbous
Apr 25
Full
May 2
Last Quarter
May 9
New
May 17
First Quarter

Hourly Weather History & Observations

Time (CDT) Temp. Windchill Dew Point Humidity Pressure Visibility Wind Dir Wind Speed Gust Speed Precip Events Conditions
12:12 AM 2.0 °C -3.0 °C 1.0 °C 93% 1020.9 hPa 16.1 km NNW 22.2 km/h / 6.2 m/s 37.0 km/h / 10.3 m/s N/A   Overcast
12:36 AM 2.0 °C -3.4 °C 0.0 °C 87% 1021.6 hPa 16.1 km NNW 25.9 km/h / 7.2 m/s 44.4 km/h / 12.3 m/s N/A   Overcast
12:53 AM 2.2 °C -3.5 °C 0.0 °C 86% 1020.0 hPa 16.1 km North 29.6 km/h / 8.2 m/s 42.6 km/h / 11.8 m/s N/A   Overcast
1:53 AM 1.7 °C -4.4 °C -1.1 °C 82% 1020.9 hPa 16.1 km North 31.5 km/h / 8.7 m/s 48.2 km/h / 13.4 m/s N/A   Overcast
2:08 AM 2.0 °C -4.1 °C -1.0 °C 81% 1021.2 hPa 16.1 km North 33.3 km/h / 9.3 m/s 50.0 km/h / 13.9 m/s N/A   Overcast
2:53 AM 1.1 °C -4.4 °C -1.1 °C 85% 1021.5 hPa 16.1 km North 24.1 km/h / 6.7 m/s 42.6 km/h / 11.8 m/s 0.3 mm Rain Rain
3:53 AM 1.1 °C -4.8 °C -1.1 °C 85% 1021.1 hPa 16.1 km North 27.8 km/h / 7.7 m/s 38.9 km/h / 10.8 m/s 0.5 mm Rain Light Rain
4:08 AM 1.0 °C -4.9 °C -1.0 °C 87% 1020.9 hPa 16.1 km North 27.8 km/h / 7.7 m/s 38.9 km/h / 10.8 m/s 0.0 mm Rain Light Rain
4:53 AM 0.0 °C -6.6 °C -1.7 °C 88% 1020.3 hPa 14.5 km North 31.5 km/h / 8.7 m/s 44.4 km/h / 12.3 m/s 0.0 mm Rain Light Rain
4:59 AM 0.0 °C -6.2 °C -2.0 °C 87% 1019.9 hPa 16.1 km North 27.8 km/h / 7.7 m/s 44.4 km/h / 12.3 m/s 0.0 mm   Overcast
5:25 AM 0.0 °C -6.4 °C -2.0 °C 87% 1020.2 hPa 16.1 km North 29.6 km/h / 8.2 m/s 48.2 km/h / 13.4 m/s 0.0 mm   Overcast
5:53 AM 0.0 °C -6.8 °C -2.2 °C 85% 1020.2 hPa 11.3 km North 33.3 km/h / 9.3 m/s 44.4 km/h / 12.3 m/s 0.0 mm Snow Light Snow
6:53 AM 0.0 °C -6.2 °C -2.2 °C 85% 1021.0 hPa 14.5 km North 27.8 km/h / 7.7 m/s 40.7 km/h / 11.3 m/s 0.0 mm Snow Light Snow
7:05 AM 0.0 °C -5.8 °C -2.0 °C 87% 1020.5 hPa 2.4 km North 24.1 km/h / 6.7 m/s 40.7 km/h / 11.3 m/s 0.0 mm Snow Light Snow
7:11 AM -1.0 °C -7.0 °C -2.0 °C 93% 1020.5 hPa 1.2 km North 24.1 km/h / 6.7 m/s 35.2 km/h / 9.8 m/s 0.0 mm Snow Light Snow
7:31 AM -1.0 °C -7.5 °C -2.0 °C 93% 1021.2 hPa 0.8 km North 27.8 km/h / 7.7 m/s 40.7 km/h / 11.3 m/s 0.0 mm Fog , Snow Snow
7:53 AM -0.6 °C -7.2 °C -2.2 °C 89% 1022.4 hPa 0.8 km North 29.6 km/h / 8.2 m/s 42.6 km/h / 11.8 m/s 0.0 mm Fog , Snow Snow
8:22 AM -1.0 °C -5.9 °C -2.0 °C 93% 1021.2 hPa 1.2 km North 16.7 km/h / 4.6 m/s - 0.0 mm Snow Light Snow
8:42 AM -1.0 °C -6.5 °C -2.0 °C 93% 1020.9 hPa 0.8 km North 20.4 km/h / 5.7 m/s - 0.0 mm Fog , Snow Snow
8:53 AM -0.6 °C -5.1 °C -1.7 °C 92% 1021.9 hPa 0.8 km North 14.8 km/h / 4.1 m/s - 0.0 mm Fog , Snow Snow
9:06 AM -1.0 °C -6.5 °C -2.0 °C 93% 1021.2 hPa 2.8 km North 20.4 km/h / 5.7 m/s - 0.0 mm Snow Light Snow
9:08 AM -1.0 °C -5.9 °C -2.0 °C 93% 1021.6 hPa 3.2 km NNW 16.7 km/h / 4.6 m/s - 0.0 mm Snow Light Snow
9:23 AM -1.0 °C -6.5 °C -2.0 °C 93% 1021.6 hPa 2.8 km NNW 20.4 km/h / 5.7 m/s 31.5 km/h / 8.7 m/s 0.0 mm Snow Light Snow
9:33 AM -1.0 °C -6.2 °C -2.0 °C 93% 1021.9 hPa 4.0 km NNW 18.5 km/h / 5.1 m/s - 0.0 mm Snow Light Snow
9:35 AM -1.0 °C -6.2 °C -3.0 °C 86% 1021.9 hPa 4.8 km NNW 18.5 km/h / 5.1 m/s - 0.0 mm Snow Light Snow
9:53 AM -0.6 °C -5.7 °C -3.3 °C 82% 1022.3 hPa 14.5 km NNW 18.5 km/h / 5.1 m/s 35.2 km/h / 9.8 m/s 0.0 mm   Overcast
10:28 AM 0.0 °C -5.5 °C -3.0 °C 80% 1020.9 hPa 3.2 km North 22.2 km/h / 6.2 m/s 37.0 km/h / 10.3 m/s 0.3 mm Snow Light Snow
10:38 AM 0.0 °C -6.2 °C -3.0 °C 80% 1021.2 hPa 9.7 km North 27.8 km/h / 7.7 m/s 37.0 km/h / 10.3 m/s 0.5 mm Snow Light Snow
10:51 AM 0.0 °C -5.5 °C -3.0 °C 80% 1021.6 hPa 2.8 km North 22.2 km/h / 6.2 m/s 37.0 km/h / 10.3 m/s 1.0 mm Snow Light Snow
10:53 AM 0.0 °C -5.3 °C -2.8 °C 82% 1022.4 hPa 2.4 km North 20.4 km/h / 5.7 m/s 31.5 km/h / 8.7 m/s 1.0 mm Snow Light Snow
11:01 AM 0.0 °C -5.3 °C -3.0 °C 80% 1021.6 hPa 4.8 km NNW 20.4 km/h / 5.7 m/s 33.3 km/h / 9.3 m/s 0.0 mm Snow Light Snow
11:14 AM 0.0 °C -5.0 °C -3.0 °C 80% 1021.6 hPa 14.5 km North 18.5 km/h / 5.1 m/s 33.3 km/h / 9.3 m/s 0.0 mm   Overcast
11:53 AM 0.6 °C -4.2 °C -3.3 °C 75% 1022.6 hPa 16.1 km North 18.5 km/h / 5.1 m/s 33.3 km/h / 9.3 m/s 0.3 mm   Overcast
12:40 PM 1.0 °C -4.0 °C -2.0 °C 81% 1021.6 hPa 4.0 km North 20.4 km/h / 5.7 m/s - 0.0 mm Snow Light Snow
12:48 PM 1.0 °C -3.7 °C -2.0 °C 81% 1021.6 hPa 8.0 km NNW 18.5 km/h / 5.1 m/s - 0.0 mm Snow Light Snow
12:53 PM 1.1 °C -3.9 °C -2.2 °C 79% 1022.2 hPa 11.3 km North 20.4 km/h / 5.7 m/s 29.6 km/h / 8.2 m/s 0.0 mm Snow Light Snow
1:46 PM 2.0 °C -2.2 °C -2.0 °C 75% 1020.9 hPa 16.1 km NNW 16.7 km/h / 4.6 m/s - 0.0 mm   Overcast
1:53 PM 2.2 °C -2.7 °C -2.2 °C 73% 1021.8 hPa 16.1 km NNW 22.2 km/h / 6.2 m/s 31.5 km/h / 8.7 m/s 0.0 mm   Overcast
2:53 PM 3.3 °C -1.5 °C -1.7 °C 70% 1021.4 hPa 16.1 km NNW 24.1 km/h / 6.7 m/s 33.3 km/h / 9.3 m/s N/A   Overcast
3:53 PM 3.9 °C 0.2 °C -1.7 °C 67% 1021.1 hPa 16.1 km North 16.7 km/h / 4.6 m/s 29.6 km/h / 8.2 m/s N/A   Overcast
4:53 PM 5.0 °C 1.8 °C -1.7 °C 62% 1020.6 hPa 16.1 km NNW 14.8 km/h / 4.1 m/s 31.5 km/h / 8.7 m/s N/A   Overcast
5:53 PM 4.4 °C 0.8 °C -2.2 °C 63% 1020.5 hPa 16.1 km NNW 16.7 km/h / 4.6 m/s - N/A   Overcast
6:53 PM 3.9 °C -0.3 °C -2.8 °C 62% 1020.8 hPa 16.1 km North 20.4 km/h / 5.7 m/s 31.5 km/h / 8.7 m/s N/A   Overcast
7:53 PM 3.3 °C 0.0 °C -3.3 °C 62% 1021.1 hPa 16.1 km NNW 13.0 km/h / 3.6 m/s - N/A   Overcast
8:53 PM 2.8 °C -0.2 °C -3.3 °C 65% 1022.0 hPa 16.1 km NNW 11.1 km/h / 3.1 m/s - N/A   Overcast
9:53 PM 2.2 °C -1.6 °C -2.2 °C 73% 1023.1 hPa 16.1 km NW 14.8 km/h / 4.1 m/s - N/A   Overcast
11:53 PM 1.1 °C -3.0 °C -3.9 °C 70% 1023.5 hPa 16.1 km NW 14.8 km/h / 4.1 m/s - N/A   Overcast